Wind_Speed
9 10 10 11 10 9 8 9 10 11 12 13 13 14 14 15 17 18 19 20 20 20 19 18 16 15 14 13 13 12 11 12 13 15 16 16 14 12 10 9 9 8 8
9 9 10 11 11 10 9 10 10 11 12 13 14 14 14 14 16 17 19 20 21 21 21 20 19 18 16 16 15 14 13 13 13 16 16 16 14 12 11 10 9 9 8
9 10 11 11 12 11 11 11 11 12 12 13 15 15 14 14 14 16 17 18 20 21 21 21 20 19 18 18 17 17 15 15 14 15 16 16 15 13 12 11 10 9 8
10 11 12 12 12 12 12 12 13 13 13 14 15 15 15 14 14 15 16 17 18 20 20 20 20 19 18 18 18 18 18 17 16 16 16 16 15 13 12 12 11 10 8
12 12 13 13 13 13 13 13 13 14 15 15 16 16 15 15 15 15 15 16 17 18 19 19 18 18 17 18 19 20 20 19 18 17 17 16 16 14 14 13 12 10 9
15 15 15 15 15 15 15 15 15 15 15 16 16 16 16 16 16 16 15 16 16 17 18 18 18 17 17 17 18 19 21 21 20 19 18 18 17 16 15 14 13 11 10
17 17 17 17 17 18 18 17 17 16 16 16 17 17 17 16 16 16 15 15 16 17 18 18 19 18 18 17 18 18 20 22 22 21 20 19 18 17 16 15 13 13 11
18 18 19 20 20 21 20 20 20 18 17 17 18 18 18 18 17 16 15 15 15 16 18 19 20 20 20 19 18 18 19 20 21 21 20 20 19 17 16 15 14 13 12
19 20 22 23 23 23 23 22 22 20 19 19 19 18 19 20 19 18 16 15 14 14 16 19 20 21 21 20 19 19 18 19 20 20 19 19 19 18 16 16 15 14 13
21 22 23 24 25 25 25 25 25 23 22 21 21 20 20 20 21 20 18 16 14 14 15 17 18 20 21 21 19 19 18 18 18 18 18 18 18 18 17 17 16 14 13
23 24 25 25 25 26 26 27 26 25 24 23 21 21 20 20 21 21 20 18 16 14 14 15 16 18 20 20 19 18 18 18 18 18 17 17 17 18 18 18 17 16 14
24 25 25 25 25 25 25 27 28 28 26 24 23 21 21 20 20 22 22 20 18 16 14 15 15 16 18 19 19 19 19 19 18 18 18 18 18 18 18 18 18 17 16
25 25 24 24 23 23 24 25 27 28 27 26 24 22 21 21 21 23 23 22 21 19 16 15 15 15 15 17 18 18 19 19 19 19 20 20 20 19 19 19 19 19 19
23 23 23 22 22 22 22 23 24 25 26 26 24 23 22 20 21 23 24 25 24 22 20 18 17 16 15 15 16 17 18 18 19 19 19 19 19 20 20 19 19 20 20
21 21 21 21 20 20 20 20 21 22 22 23 22 23 23 21 21 23 25 26 25 24 23 21 20 18 17 16 16 16 17 17 18 18 18 18 18 18 18 18 19 19 20
19 19 19 19 19 19 19 18 18 18 18 18 19 19 20 21 22 23 24 26 27 27 26 25 23 22 20 19 18 18 18 18 18 18 18 18 18 18 18 18 18 19 19
19 19 18 18 18 18 17 17 17 17 17 17 18 18 18 19 21 22 25 27 28 29 29 28 27 25 23 22 21 20 20 20 20 19 19 19 19 20 20 20 19 20 20
20 20 19 18 18 18 17 17 17 17 16 17 17 16 17 18 20 21 23 27 29 30 30 30 30 29 27 25 23 22 22 21 21 21 21 21 21 21 21 21 21 21 21
21 20 19 18 18 18 18 18 18 18 18 18 17 17 17 17 18 19 21 24 27 29 31 32 33 32 31 29 27 25 24 24 23 22 22 22 22 22 22 22 22 21 21
20 19 19 19 19 19 19 19 19 19 19 19 18 18 18 18 19 19 19 21 25 28 30 32 34 34 34 33 31 29 28 27 26 24 24 24 24 24 24 23 23 23 23
19 19 18 18 18 19 19 19 19 19 20 20 20 19 19 18 19 20 20 21 23 26 28 31 33 34 34 34 34 34 32 30 28 28 28 28 26 26 26 26 25 25 25
19 19 19 19 19 19 20 20 20 21 21 21 21 20 20 20 20 20 21 21 22 24 25 28 31 33 34 34 35 36 35 32 31 32 31 30 30 30 29 29 28 28 28
20 19 19 19 19 19 19 20 20 21 21 21 22 22 22 21 20 20 21 21 21 22 24 25 27 30 32 34 35 35 35 34 34 35 34 33 33 33 33 32 31 31 31
20 20 19 19 19 19 19 19 20 21 21 21 21 21 22 22 21 21 21 21 21 22 24 26 27 27 29 32 34 35 36 35 35 34 34 35 35 34 34 33 33 33 33
20 20 19 19 19 19 19 20 20 20 21 21 21 21 22 22 22 22 22 22 22 22 22 23 25 27 27 29 31 33 34 34 34 35 35 35 36 36 35 35 35 34 35
20 20 20 20 20 20 20 20 21 21 22 22 22 22 23 23 23 23 23 22 22 22 22 22 24 25 26 27 29 30 32 33 34 35 36 35 36 37 36 36 37 36 36
Wind_Direction
342 346 344 340 340 331 317 299 282 273 268 264 256 248 244 242 242 241 240 240 241 243 244 246 248 248 248 246 241 235 227 221 216 214 214 214 218 226 237 250 257 260 262
324 332 335 334 335 332 321 305 288 277 270 265 259 253 248 246 244 242 241 241 242 243 243 245 247 247 246 243 238 232 225 218 215 215 214 216 218 226 238 249 256 259 259
306 317 324 326 327 326 322 313 298 284 270 261 259 255 251 249 248 245 244 243 242 242 242 243 245 245 245 242 236 229 224 219 216 215 216 218 222 230 240 249 256 257 255
292 299 306 313 314 314 313 308 299 288 275 263 256 254 251 248 249 248 247 245 243 241 240 241 242 243 243 241 235 228 223 219 216 217 218 221 226 233 242 248 254 254 248
284 287 290 299 299 300 303 301 295 288 280 269 257 252 250 249 250 249 250 249 245 240 238 238 239 241 241 239 233 228 224 221 219 220 221 224 229 236 242 247 248 248 241
278 280 279 288 288 289 292 293 291 286 280 272 263 256 250 248 252 252 253 250 246 239 235 233 234 237 236 232 228 225 223 222 222 223 225 228 233 237 241 243 242 240 234
276 277 276 280 279 282 284 284 282 281 275 269 264 259 252 246 248 253 255 250 243 236 231 230 231 231 229 226 224 223 222 222 224 226 229 231 234 237 239 238 235 232 226
275 275 276 276 276 277 276 276 277 276 271 266 263 261 256 247 244 248 252 251 244 235 230 229 228 227 225 223 222 222 222 222 223 226 229 231 233 234 233 230 227 224 220
275 275 275 275 275 273 270 270 271 268 264 261 260 260 259 252 245 243 245 246 243 236 231 229 227 225 224 222 222 222 222 222 222 224 226 228 228 227 225 222 219 217 215
277 277 276 276 274 271 268 268 267 263 261 257 256 258 259 253 246 241 239 238 236 233 231 229 226 225 224 222 222 222 222 220 220 220 221 222 222 220 219 216 214 214 214
279 278 277 275 273 270 267 266 263 259 257 254 254 257 257 253 244 237 236 235 232 229 227 228 226 225 225 222 220 221 221 221 219 219 218 218 217 217 216 216 216 217 218
280 279 277 275 272 269 266 262 260 257 253 251 250 253 253 250 242 235 233 231 230 226 224 225 225 225 226 225 223 224 224 223 223 221 220 219 219 219 219 221 222 224 227
280 279 277 275 272 268 266 264 259 257 253 250 248 248 248 248 243 236 231 230 227 225 223 224 224 224 224 226 226 226 225 226 226 226 226 226 226 226 226 227 229 231 233
279 277 276 273 270 268 267 267 262 258 255 247 244 244 243 248 245 236 233 230 227 225 224 224 226 226 224 226 226 226 226 226 226 227 228 229 230 230 231 233 234 236 238
278 276 274 272 269 268 267 268 264 259 254 249 245 243 242 243 242 238 234 230 226 225 225 226 227 228 227 228 229 228 227 226 226 227 228 230 231 233 234 236 238 240 242
280 278 275 272 270 269 267 267 265 261 256 252 249 247 244 241 241 240 235 231 228 226 227 227 229 230 230 231 233 233 232 231 230 230 230 232 233 235 237 239 241 243 244
282 279 276 272 270 268 267 265 262 260 256 252 251 249 248 247 245 242 237 233 230 228 227 227 228 229 231 233 235 235 236 236 236 235 234 235 236 237 239 241 243 244 246
281 279 277 273 269 267 265 263 260 258 255 254 253 253 253 251 245 243 240 234 231 229 228 229 228 229 231 234 237 238 237 238 238 238 238 238 239 239 240 241 242 244 245
282 279 276 273 270 267 264 262 260 258 256 255 255 255 254 252 246 245 244 236 233 231 231 232 229 230 232 236 238 239 240 241 240 240 240 240 240 240 241 241 242 243 245
284 281 278 275 272 268 264 261 260 258 257 257 256 256 256 254 249 247 247 244 238 235 235 234 229 230 233 236 237 239 242 243 243 243 243 243 243 243 243 242 243 244 246
288 285 282 279 275 270 266 263 261 258 256 256 256 256 256 253 249 246 248 249 245 241 239 233 231 232 233 235 237 239 241 243 244 245 245 245 245 246 246 246 246 247 248
290 287 285 282 279 274 269 266 263 260 257 255 254 254 254 254 252 250 249 250 249 245 242 237 236 236 237 236 236 239 241 243 244 246 248 249 249 250 250 250 250 250 252
291 288 285 282 280 276 271 266 263 261 258 255 253 252 252 252 252 251 249 248 248 245 242 240 239 239 237 236 238 240 241 243 244 247 250 251 250 250 251 252 253 253 254
294 291 287 282 279 275 271 267 264 260 256 253 253 252 252 252 251 251 250 249 248 246 244 243 242 241 240 240 241 241 243 243 245 247 249 250 251 252 254 255 255 256 256
296 294 291 286 281 275 271 267 263 259 256 254 253 253 253 253 253 252 251 250 249 247 246 245 243 243 244 244 243 243 244 244 244 245 248 249 251 253 256 257 257 256 256
298 296 292 288 284 278 273 268 264 260 256 255 254 253 252 253 253 253 253 253 252 251 249 247 245 244 244 243 241 241 243 245 245 246 247 249 251 254 256 257 257 257 256
Height
5871 5869 5868 5867 5866 5865 5864 5863 5863 5863 5862 5862 5863 5864 5865 5866 5867 5868 5869 5870 5871 5873 5874 5875 5876 5877 5878 5878 5879 5880 5881 5882 5884 5886 5888 5890 5893 5894 5896 5896 5897 5897 5897
5869 5868 5867 5865 5864 5863 5862 5861 5860 5861 5860 5860 5860 5861 5862 5863 5864 5865 5866 5867 5868 5869 5870 5871 5872 5874 5875 5875 5876 5877 5879 5880 5882 5884 5886 5888 5891 5892 5894 5894 5895 5896 5896
5867 5866 5865 5863 5861 5860 5859 5858 5857 5857 5858 5857 5857 5858 5859 5860 5860 5861 5862 5863 5864 5865 5866 5867 5868 5870 5871 5872 5873 5874 5876 5878 5880 5882 5884 5886 5888 5890 5891 5892 5893 5894 5894
5864 5863 5862 5861 5859 5858 5857 5856 5855 5854 5854 5854 5854 5854 5855 5856 5857 5858 5858 5859 5860 5861 5862 5863 5865 5866 5867 5869 5870 5871 5873 5875 5877 5879 5882 5884 5886 5888 5889 5890 5891 5891 5892
5860 5860 5859 5858 5857 5855 5854 5853 5852 5851 5850 5850 5850 5851 5852 5853 5853 5854 5855 5855 5856 5857 5858 5860 5861 5863 5864 5865 5866 5868 5870 5872 5875 5877 5879 5881 5883 5885 5886 5887 5888 5889 5890
5856 5855 5855 5854 5853 5852 5850 5849 5849 5847 5847 5846 5846 5847 5849 5849 5849 5850 5851 5852 5852 5853 5855 5856 5857 5859 5860 5862 5863 5865 5867 5869 5872 5874 5876 5878 5880 5882 5883 5884 5885 5886 5887
5851 5850 5850 5849 5848 5847 5846 5845 5844 5843 5843 5843 5842 5843 5844 5846 5846 5847 5847 5848 5848 5849 5851 5852 5854 5855 5857 5858 5860 5861 5863 5866 5868 5870 5873 5875 5877 5878 5880 5881 5882 5884 5885
5846 5845 5844 5843 5843 5842 5841 5840 5839 5839 5839 5839 5838 5838 5839 5842 5843 5843 5844 5844 5845 5846 5847 5848 5849 5851 5853 5854 5856 5858 5860 5862 5864 5867 5869 5871 5873 5875 5876 5878 5879 5881 5882
5840 5839 5838 5837 5837 5836 5835 5834 5834 5834 5834 5834 5834 5834 5834 5836 5838 5840 5840 5841 5841 5842 5843 5844 5846 5847 5849 5851 5853 5855 5857 5858 5861 5863 5865 5867 5869 5871 5873 5875 5876 5878 5879
5835 5833 5832 5831 5830 5830 5829 5828 5828 5828 5828 5828 5829 5829 5830 5831 5833 5835 5836 5837 5838 5839 5839 5840 5842 5844 5846 5848 5850 5852 5853 5855 5857 5859 5861 5863 5866 5868 5870 5872 5874 5875 5877
5828 5827 5826 5825 5824 5823 5822 5822 5822 5821 5821 5822 5823 5824 5824 5826 5827 5830 5832 5833 5835 5835 5836 5837 5839 5841 5843 5844 5846 5848 5850 5852 5854 5856 5858 5860 5862 5865 5867 5869 5871 5872 5874
5822 5820 5819 5818 5817 5816 5816 5815 5815 5814 5814 5816 5817 5818 5819 5820 5822 5824 5827 5829 5831 5832 5833 5834 5836 5838 5839 5841 5843 5845 5847 5849 5851 5853 5855 5857 5859 5861 5863 5865 5867 5869 5871
5815 5814 5812 5811 5810 5810 5809 5808 5808 5808 5807 5809 5810 5812 5813 5815 5816 5819 5821 5824 5826 5829 5830 5831 5833 5835 5836 5838 5840 5841 5843 5845 5847 5849 5851 5853 5856 5858 5860 5861 5863 5865 5867
5809 5808 5806 5805 5804 5803 5802 5801 5801 5801 5801 5802 5803 5805 5807 5809 5810 5813 5816 5818 5821 5824 5826 5828 5830 5831 5833 5835 5836 5838 5840 5842 5843 5845 5847 5849 5851 5853 5855 5857 5859 5861 5862
5803 5802 5800 5799 5798 5797 5796 5795 5795 5794 5794 5795 5797 5799 5801 5802 5804 5806 5809 5812 5815 5818 5821 5824 5826 5828 5830 5831 5833 5834 5836 5838 5840 5841 5843 5845 5847 5849 5851 5852 5854 5856 5857
5798 5796 5795 5794 5793 5792 5791 5790 5790 5789 5789 5790 5791 5793 5794 5796 5798 5800 5803 5806 5809 5812 5815 5819 5821 5823 5825 5827 5829 5831 5832 5834 5836 5837 5839 5841 5842 5844 5846 5848 5849 5851 5852
5792 5791 5790 5789 5787 5787 5786 5785 5785 5785 5785 5786 5787 5788 5789 5790 5792 5793 5796 5799 5802 5806 5809 5812 5815 5818 5820 5822 5824 5826 5828 5830 5831 5833 5835 5836 5838 5840 5841 5843 5844 5846 5847
5786 5785 5784 5783 5782 5781 5781 5781 5781 5781 5781 5782 5782 5783 5784 5785 5786 5787 5789 5792 5795 5798 5802 5805 5808 5812 5814 5817 5819 5821 5823 5825 5827 5828 5830 5832 5833 5835 5836 5838 5839 5840 5842
5780 5779 5778 5777 5776 5776 5776 5775 5776 5776 5776 5777 5777 5778 5779 5779 5780 5782 5783 5785 5788 5791 5795 5798 5801 5805 5808 5811 5813 5815 5817 5819 5821 5823 5825 5826 5828 5829 5831 5832 5833 5835 5836
5774 5773 5772 5771 5770 5770 5770 5770 5770 5770 5771 5771 5772 5773 5774 5775 5775 5777 5778 5779 5782 5784 5787 5790 5794 5797 5801 5804 5807 5809 5811 5813 5816 5818 5819 5820 5822 5823 5825 5826 5828 5829 5830
5769 5767 5766 5765 5764 5764 5764 5764 5764 5765 5765 5766 5767 5767 5768 5769 5770 5772 5773 5774 5775 5777 5780 5783 5786 5789 5793 5796 5799 5802 5804 5806 5809 5810 5812 5814 5816 5817 5819 5820 5821 5822 5824
5763 5762 5761 5760 5759 5758 5758 5758 5758 5759 5759 5760 5761 5762 5763 5764 5765 5766 5767 5769 5770 5772 5773 5776 5778 5781 5785 5788 5791 5794 5796 5800 5802 5802 5804 5807 5809 5810 5811 5813 5814 5815 5817
5756 5755 5755 5754 5753 5752 5752 5752 5752 5753 5753 5754 5755 5756 5757 5758 5759 5760 5761 5763 5764 5765 5767 5769 5771 5774 5776 5780 5783 5786 5789 5791 5793 5795 5797 5799 5800 5802 5803 5805 5807 5808 5809
5750 5749 5748 5747 5747 5746 5746 5746 5746 5746 5747 5747 5748 5749 5750 5751 5753 5754 5755 5756 5758 5759 5761 5763 5765 5767 5769 5771 5774 5777 5780 5783 5785 5787 5789 5790 5791 5793 5795 5797 5798 5799 5801
5744 5742 5741 5740 5740 5739 5739 5739 5739 5740 5740 5741 5742 5743 5744 5745 5746 5747 5749 5750 5751 5753 5754 5756 5758 5760 5761 5763 5766 5768 5771 5774 5776 5778 5780 5782 5783 5784 5786 5788 5789 5790 5791
5738 5736 5735 5734 5733 5732 5732 5732 5732 5733 5734 5734 5735 5737 5738 5738 5740 5741 5742 5743 5745 5746 5748 5749 5751 5752 5754 5756 5758 5760 5762 5764 5767 5769 5771 5773 5774 5775 5777 5778 5779 5780 5781